Regional Weather Roundup
Issued by NWS

Home | Current Version | Previous Version | Text Only | Print | Product List | Glossary Off
Versions: 1 2 3 4 5 6 7 8 9 10 11 12 13 14 15 16 17 18 19 20 21 22 23 24 25 26 27 28 29 30 31 32 33 34 35 36 37 38 39 40 41 42 43 44 45 46 47 48 49 50

000
ASUS43 KMKX 241200
RWRWI

WISCONSIN REGIONAL WEATHER ROUNDUP
NATIONAL WEATHER SERVICE MILWAUKEE/SULLIVAN WI
700 AM CDT TUE MAY 24 2016

NOTE: "FAIR" INDICATES FEW OR NO CLOUDS BELOW 12,000 FEET WITH NO
SIGNIFICANT WEATHER AND/OR OBSTRUCTIONS TO VISIBILITY.

WIZ001-002-006>008-014>016-023>028-241300-
NORTHWEST WISCONSIN

CITY           SKY/WX    TMP DP  RH WIND       PRES   REMARKS
SUPERIOR ARPT  CLOUDY    55  55 100 CALM      29.82S FOG
ASHLAND        CLOUDY    61  61 100 CALM      29.85R
6HR MIN TEMP:  58; 6HR MAX TEMP:  61; 6HR PCP:  0.32;

HAYWARD        CLOUDY    64  60  87 VRB7      29.84S
6HR MIN TEMP:  58; 6HR MAX TEMP:  64; 6HR PCP: TRACE;

SIREN          PTSUNNY   62  61  95 S7        29.83S
CUMBERLAND     PTSUNNY   61  59  94 S3        29.85R
RICE LAKE      PTSUNNY   62  59  90 SE5       29.86S
CHETEK         CLOUDY    62  61  97 SE6       29.86R
LADYSMITH      CLOUDY    62  61  95 CALM      29.88R
EAU CLAIRE     NOT AVBL
MENOMONIE      RAIN      63  63  99 CALM      29.86R
NEW RICHMOND   CLOUDY    64  61  89 S7        29.84S
OSCEOLA        CLOUDY    64  64 100 S7        29.85S
$$

WIZ003>005-009-010-017-018-241300-
NORTH CENTRAL WISCONSIN

CITY           SKY/WX    TMP DP  RH WIND       PRES   REMARKS
MANITOWISH WTR LGT RAIN  60  60 100 S5        29.89R
ARBOR VITAE    CLOUDY    62  60  94 S3        29.88F
WOODRUFF       CLOUDY    62  60  94 S3        29.88F
RHINELANDER    CLOUDY    62  60  93 S3        29.90F
6HR MIN TEMP:  60; 6HR MAX TEMP:  68; 6HR PCP:  0.19;

EAGLE RIVER    LGT RAIN  60  60  99 S3        29.90S
LAND O LAKES   RAIN      61  60  97 CALM      29.91R
PHILLIPS       PTSUNNY   61  61  99 S5        29.87R
6HR MIN TEMP:  60; 6HR MAX TEMP:  66; 6HR PCP:  0.08;

TOMAHAWK       CLOUDY    60  59  96 CALM      29.90R FOG
MEDFORD        LGT RAIN  60  60 100 CALM      29.89R
MERRILL        LGT RAIN N/A N/A N/A S3        29.91R
$$

WIZ029-030-035-036-043>047-241300-
CENTRAL WISCONSIN

CITY           SKY/WX    TMP DP  RH WIND       PRES   REMARKS
WAUSAU         LGT RAIN  62  53  72 S6        29.90R
6HR MIN TEMP:  60; 6HR MAX TEMP:  66; 6HR PCP:  0.02;

MOSINEE        LGT RAIN  57  54  88 E6        29.91S
MARSHFIELD     CLOUDY    61  55  81 S6        29.89R
6HR MIN TEMP:  60; 6HR MAX TEMP:  65; 6HR PCP:  0.02;

STEVENS POINT  CLOUDY    59  51  73 SW3       29.91R
WAUPACA        CLOUDY    58  53  81 CALM      29.91R
6HR MIN TEMP:  54; 6HR MAX TEMP:  61;

WAUTOMA        CLOUDY    56  51  84 CALM      29.92R
6HR MIN TEMP:  49; 6HR MAX TEMP:  56;

WISC RAPIDS    CLOUDY    60  54  80 S5        29.91S
6HR MIN TEMP:  56; 6HR MAX TEMP:  64; 6HR PCP:  0.03;

CAMP DOUGLAS   NOT AVBL
$$

WIZ011>013-019>022-031-037>040-048>050-241300-
NORTHEAST WISCONSIN

CITY           SKY/WX    TMP DP  RH WIND       PRES   REMARKS
ANTIGO         CLOUDY    59  55  86 CALM      29.92R
SHAWANO        CLOUDY    61  52  73 CALM      29.91R
6HR MIN TEMP:  58; 6HR MAX TEMP:  66;

OCONTO         MOSUNNY   59  50  73 CALM      29.90R
STURGEON BAY   NOT AVBL
GREEN BAY      CLOUDY    61  49  64 W3        29.91R
6HR MIN TEMP:  54; 6HR MAX TEMP:  64;

MANITOWOC      NOT AVBL
APPLETON       PTSUNNY   61  46  59 S5        29.90R
CLINTONVILLE   CLOUDY    55  50  82 CALM      29.91R
OSHKOSH        MOSUNNY   60  48  64 S8        29.91R
6HR MIN TEMP:  54; 6HR MAX TEMP:  62;

$$

WIZ032>034-041-042-053>061-241300-
SOUTHWEST WISCONSIN

CITY           SKY/WX    TMP DP  RH WIND       PRES   REMARKS
LA CROSSE      CLOUDY    69  55  60 S7        29.86S
6HR MIN TEMP:  65; 6HR MAX TEMP:  70;

SPARTA         CLOUDY    61  55  80 CALM      29.89S
VIROQUA        CLOUDY    65  53  64 S5        29.90S
BOSCOBEL       MOSUNNY   66  56  70 CALM      29.90S
6HR MIN TEMP:  57; 6HR MAX TEMP:  66;

PRAIRIE DU CHI CLOUDY    68  53  58 CALM      29.89S
PLATTEVILLE    MOSUNNY   64  52  65 S8        29.93S
$$

WIZ056-057-062-063-064-067-068-241300-
SOUTH CENTRAL WISCONSIN

CITY           SKY/WX    TMP DP  RH WIND       PRES   REMARKS
REEDSBURG      CLOUDY    64  51  62 S6        29.90S
BARABOO/DELLS  CLOUDY    65  48  54 S8        29.91S
LONE ROCK      NOT AVBL
MINERAL POINT  MOSUNNY   61  50  67 SE6       29.93S
MADISON        PTSUNNY   63  49  60 S8        29.93S
6HR MIN TEMP:  58; 6HR MAX TEMP:  64;

MIDDLETON      PTSUNNY   65  49  56 S5        29.93S
WATERTOWN      SUNNY     58  49  72 S3        29.94S
MONROE         MOSUNNY   61  48  63 S8        29.95R
JANESVILLE     SUNNY     63  50  63 S5        29.95R
$$

WIZ051-052-058>065-066-070>072-241300-
SOUTHEAST WISCONSIN

CITY           SKY/WX    TMP DP  RH WIND       PRES   REMARKS
MILWAUKEE      CLOUDY    63  48  58 SW8       29.96R
6HR MIN TEMP:  59; 6HR MAX TEMP:  63;

WAUKESHA       SUNNY     57  45  62 S3        29.97R
MILWAUKEE/TIMM CLOUDY    57  43  58 CALM      29.97R
RACINE         CLOUDY    63  48  58 SW7       29.98R
6HR MIN TEMP:  56; 6HR MAX TEMP:  63;

BURLINGTON     SUNNY     51  47  87 CALM      29.97R
KENOSHA        CLOUDY    63  50  62 SW3       29.97R
6HR MIN TEMP:  56; 6HR MAX TEMP:  63;

FOND DU LAC    MOSUNNY   59  48  67 S6        29.93R
6HR MIN TEMP:  53; 6HR MAX TEMP:  61;

SHEBOYGAN      CLOUDY    59  49  69 SW6       29.94R
6HR MIN TEMP:  49; 6HR MAX TEMP:  59;

WEST BEND      CLOUDY    55  45  67 CALM      29.96R
JUNEAU         SUNNY     56  47  71 SE6       29.95S
$$

LSZ147-162-241300-
LAKE SUPERIOR

STATION/POSITION TIME  TEMP    WIND        PRES    WAVE
                       AIR SEA DIR/SP/G            HT/PER
                 (UTC) (F)     (DEG/KT/KT) (MB)    (FT/S)
W MID LAKE BUOY  1050   48 38  200/  8/  8 1010.0F   1
DEVILS ISLAND    1100   61     160/  4/  4 1010.0S
SAXON HARBOR     1100   56     200/  3/  3 1009.8F
$$

LMZ867-665-643>646-241300-
LAKE MICHIGAN

STATION/POSITION TIME  TEMP    WIND        PRES    WAVE
                       AIR SEA DIR/SP/G            HT/PER
                 (UTC) (F)     (DEG/KT/KT) (MB)    (FT/S)
CHAMBERS ISLAND  1100   61     180/  5/  9 1012.2R
N MID LAKE BUOY  1050   48 44  200/ 14/ 16 1012.0R   2/ 4
NORTHPORT PIER   1100   56      70/  2/  4 1011.9R
SISTER BAY       1004   62     170/  8/ 11   N/A
ALGOMA LAKESHORE 1101             CALM       N/A
KEWAUNEE LAKESHO 1100   53     150/  2/  3 1012.0R
SHEBOYGAN LAKESH 1100   55     220/  5/  5 1013.9R
PORT WASHINGTON  1100   56      CALM  /  2 1014.6R
S MID LAKE BUOY  1050   52 47  170/ 10/ 12 1014.6R   1
KENOSHA   LAKESH 1100   64     230/  9/ 14 1014.6R
$$

TC  - TEMPERATURE IN CELSIUS
VSB - VISIBILITY IN STATUTE MILES
WCI - WIND CHILL INDEX
HX  - HEAT INDEX




USA.gov is the U.S. government's official web portal to all federal, state and local government web resources and services.